Flag for U.S.A. Weather past 2 weeks in Pullman, Washington, U.S.A.

Now
36 °F

Clear.


Feels Like: 33 °F
Forecast: 36 / 65 °F
Wind: 3 mph from North

Location: Pullman / Moscow Regional Airport

Current Time: Apr 27, 2015 at 6:07:07 AM

Latest Report: Apr 27, 2015 at 4:53 AM


Visibility: 10 mi

Pressure: 30.34 "Hg

Humidity: 62%

Dew point: 24 °F

Location of PullmanLocation

Historic Weather in Pullman — Graph

°F

Pullman temperature yesterday

Maximum temperature yesterday: 55 °F (at 3:53 PM)
Minimum temperature yesterday: 26 °F (at 5:53 AM)
Average temperature yesterday: 42 °F

Past Weeks' High & Low Weather Summary

 TemperatureHumidityPressure
High72 °F (Apr 21, 2:53 PM)96% (Apr 14, 4:53 AM)30.47 "Hg (Apr 14, 4:53 AM)
Low26 °F (Apr 26, 5:53 AM)20% (Apr 18, 1:53 PM)29.75 "Hg (Apr 24, 1:53 AM)
Average46 °F58%30.07 "Hg
* Reported Apr 12 4:53 AM — Apr 27 4:53 AM, Pullman, Weather by CustomWeather, © 2015

Note: Actual official high and low records may vary slightly from our data, if they occured in-between our weather recording intervals... More about our weather records

Advertising

Pullman weather history for previous 24 hours

 ConditionsComfort  
Time TempWeatherWind HumidityBarometerVisibility
4:53 AM
Mon, Apr 27
36 °FClear.3 mph62%30.34 "Hg10 mi
3:53 AM37 °FClear.5 mph60%30.34 "Hg10 mi
2:53 AM39 °FClear.5 mph55%30.33 "Hg10 mi
1:53 AM37 °FClear.No wind62%30.33 "Hg10 mi
12:53 AM34 °FClear.No wind67%30.32 "Hg10 mi
11:53 PM
Sun, Apr 26
37 °FClear.3 mph62%30.31 "Hg10 mi
10:53 PM35 °FClear.No wind67%30.32 "Hg10 mi
9:53 PM39 °FClear.No wind55%30.32 "Hg10 mi
8:53 PM40 °FClear.No wind58%30.30 "Hg10 mi
7:53 PM49 °FSunny.No wind39%30.27 "Hg10 mi
6:53 PM53 °FSunny.3 mph27%30.27 "Hg10 mi
5:53 PM54 °FSunny.3 mph26%30.28 "Hg10 mi
4:53 PM55 °FSunny.7 mph28%30.26 "Hg10 mi
3:53 PM55 °FSunny.6 mph31%30.26 "Hg10 mi
2:53 PM53 °FSunny.5 mph31%30.26 "Hg10 mi
1:53 PM54 °FSunny.7 mph35%30.25 "Hg10 mi
12:53 PM52 °FPassing clouds.N/A38%30.24 "Hg10 mi
11:53 AM52 °FSunny.12 mph45%30.25 "Hg10 mi
10:53 AM50 °FSunny.8 mph50%30.23 "Hg10 mi
9:53 AM47 °FSunny.9 mph54%30.22 "Hg10 mi
8:53 AM44 °FSunny.10 mph60%30.20 "Hg10 mi
7:53 AM40 °FSunny.3 mph70%30.19 "Hg10 mi
6:53 AM31 °FSunny.No wind85%30.17 "Hg10 mi
Weather by CustomWeather, © 2015

See weather overviewHow to use our weather pages